Hourly Weather Kabul

Today, 15 July, Wednesday

Time Temperature Precipitation Wind Pressure Humidity
00:00 +24°C° 0 mm 1 mps 744 mmHg 76%
01:00 +24°C° 0 mm 1 mps 744 mmHg 75%
02:00 +24°C° 0 mm 1 mps 744 mmHg 74%
03:00 +24°C° 0 mm 1 mps 744 mmHg 75%
04:00 +24°C° 0 mm 1 mps 744 mmHg 75%
05:00 +24°C° 0 mm 1 mps 745 mmHg 76%
06:00 +26°C° 0 mm 1 mps 745 mmHg 68%
07:00 +29°C° 0 mm 1 mps 745 mmHg 60%
08:00 +31°C° 0 mm 2 mps 745 mmHg 53%
09:00 +32°C° 0 mm 2 mps 745 mmHg 49%
10:00 +35°C° 0 mm 3 mps 745 mmHg 46%
11:00 +36°C° 0 mm 4 mps 745 mmHg 43%
12:00 +36°C° 0 mm 4 mps 745 mmHg 43%
13:00 +36°C° 0 mm 5 mps 745 mmHg 43%
14:00 +36°C° 0 mm 6 mps 745 mmHg 44%
15:00 +35°C° 0 mm 6 mps 745 mmHg 47%
16:00 +34°C° 0 mm 5 mps 745 mmHg 50%
17:00 +34°C° 0 mm 5 mps 745 mmHg 53%
18:00 +32°C° 0 mm 4 mps 745 mmHg 64%
19:00 +28°C° 0 mm 4 mps 745 mmHg 75%
20:00 +26°C° 0 mm 3 mps 745 mmHg 86%
21:00 +26°C° 0 mm 3 mps 745 mmHg 87%
22:00 +26°C° 0 mm 3 mps 745 mmHg 88%
23:00 +25°C° 0 mm 3 mps 744 mmHg 88%

Tomorrow, 16 July, Thursday

Time Temperature Precipitation Wind Pressure Humidity
00:00 +25°C° 0 mm 2 mps 744 mmHg 88%
01:00 +25°C° 0 mm 2 mps 744 mmHg 87%
02:00 +25°C° 0 mm 1 mps 744 mmHg 87%
03:00 +24°C° 0 mm 1 mps 744 mmHg 87%
04:00 +24°C° 0 mm 1 mps 744 mmHg 88%
05:00 +24°C° 0 mm 1 mps 744 mmHg 88%
06:00 +26°C° 0 mm 1 mps 744 mmHg 78%
07:00 +28°C° 0 mm 2 mps 744 mmHg 68%
08:00 +30°C° 0 mm 3 mps 744 mmHg 58%
09:00 +33°C° 0 mm 3 mps 744 mmHg 54%
10:00 +34°C° 0 mm 4 mps 744 mmHg 50%
11:00 +35°C° 0 mm 4 mps 744 mmHg 45%
12:00 +35°C° 0 mm 5 mps 744 mmHg 46%
13:00 +35°C° 0 mm 5 mps 743 mmHg 47%
14:00 +34°C° 0 mm 6 mps 743 mmHg 47%
15:00 +34°C° 0 mm 5 mps 743 mmHg 51%
16:00 +33°C° 0 mm 5 mps 742 mmHg 55%
17:00 +32°C° 0 mm 5 mps 742 mmHg 59%
18:00 +29°C° 0 mm 4 mps 742 mmHg 67%
19:00 +27°C° 0 mm 3 mps 742 mmHg 76%
20:00 +25°C° 0 mm 2 mps 742 mmHg 85%
21:00 +25°C° 0 mm 2 mps 742 mmHg 85%
22:00 +24°C° 0 mm 1 mps 742 mmHg 85%
23:00 +24°C° 0 mm 1 mps 742 mmHg 85%

Day after tomorrow, 17 July, Friday

Time Temperature Precipitation Wind Pressure Humidity
00:00 +23°C° 0 mm 1 mps 742 mmHg 86%
01:00 +23°C° 0 mm 1 mps 742 mmHg 87%
02:00 +23°C° 0 mm 1 mps 742 mmHg 88%
03:00 +22°C° 0 mm 1 mps 742 mmHg 89%
04:00 +22°C° 0 mm 1 mps 742 mmHg 89%
05:00 +22°C° 0 mm 1 mps 742 mmHg 90%
06:00 +24°C° 0 mm 2 mps 742 mmHg 79%
07:00 +27°C° 0 mm 2 mps 742 mmHg 67%
08:00 +29°C° 0 mm 2 mps 743 mmHg 56%
09:00 +30°C° 0 mm 3 mps 742 mmHg 51%
10:00 +33°C° 0 mm 3 mps 742 mmHg 46%
11:00 +35°C° 0 mm 4 mps 742 mmHg 40%
12:00 +35°C° 0 mm 4 mps 742 mmHg 41%
13:00 +35°C° 0 mm 5 mps 742 mmHg 41%
14:00 +35°C° 0 mm 5 mps 742 mmHg 42%
15:00 +34°C° 0 mm 5 mps 741 mmHg 45%
16:00 +32°C° 0 mm 5 mps 741 mmHg 49%
17:00 +30°C° 0 mm 4 mps 741 mmHg 52%
18:00 +28°C° 0 mm 3 mps 741 mmHg 59%
19:00 +27°C° 0 mm 3 mps 741 mmHg 67%
20:00 +25°C° 0 mm 2 mps 742 mmHg 74%
21:00 +24°C° 0 mm 2 mps 742 mmHg 76%
22:00 +24°C° 0 mm 1 mps 742 mmHg 77%
23:00 +23°C° 0 mm 1 mps 742 mmHg 78%

18 July, Saturday

Time Temperature Precipitation Wind Pressure Humidity
00:00 +23°C° 0 mm 1 mps 742 mmHg 81%
01:00 +23°C° 0 mm 1 mps 742 mmHg 83%
02:00 +22°C° 0 mm 1 mps 742 mmHg 85%
03:00 +22°C° 0 mm 1 mps 742 mmHg 86%
04:00 +22°C° 0 mm 1 mps 742 mmHg 88%
05:00 +22°C° 0 mm 1 mps 743 mmHg 89%
06:00 +24°C° 0 mm 1 mps 743 mmHg 80%
07:00 +26°C° 0 mm 2 mps 743 mmHg 71%
08:00 +29°C° 0 mm 2 mps 743 mmHg 62%
09:00 +31°C° 0 mm 2 mps 743 mmHg 56%
10:00 +33°C° 0 mm 3 mps 743 mmHg 50%
11:00 +35°C° 0 mm 3 mps 743 mmHg 44%
12:00 +35°C° 0 mm 4 mps 743 mmHg 45%
13:00 +35°C° 0 mm 5 mps 743 mmHg 46%
14:00 +35°C° 0 mm 5 mps 742 mmHg 47%
15:00 +34°C° 0 mm 5 mps 742 mmHg 48%
16:00 +33°C° 0 mm 5 mps 742 mmHg 50%
17:00 +32°C° 0 mm 5 mps 742 mmHg 52%
18:00 +29°C° 0 mm 4 mps 742 mmHg 60%
19:00 +27°C° 0 mm 3 mps 743 mmHg 68%
20:00 +25°C° 0 mm 3 mps 743 mmHg 77%
21:00 +25°C° 0 mm 2 mps 743 mmHg 77%
22:00 +25°C° 0 mm 2 mps 743 mmHg 78%
23:00 +24°C° 0 mm 2 mps 743 mmHg 78%

19 July, Sunday

Time Temperature Precipitation Wind Pressure Humidity
00:00 +24°C° 0 mm 1 mps 743 mmHg 80%
01:00 +24°C° 0 mm 1 mps 743 mmHg 82%
02:00 +23°C° 0 mm 1 mps 744 mmHg 84%
03:00 +23°C° 0 mm 1 mps 744 mmHg 84%
04:00 +23°C° 0 mm 1 mps 744 mmHg 85%
05:00 +21°C° 0 mm 0 mps 744 mmHg 86%
06:00 +25°C° 0 mm 1 mps 744 mmHg 76%
07:00 +27°C° 0 mm 1 mps 744 mmHg 65%
08:00 +30°C° 0 mm 2 mps 744 mmHg 55%
09:00 +31°C° 0 mm 2 mps 744 mmHg 51%
10:00 +34°C° 0 mm 3 mps 744 mmHg 48%
11:00 +35°C° 0 mm 4 mps 744 mmHg 44%
12:00 +36°C° 0 mm 4 mps 744 mmHg 44%
13:00 +36°C° 0 mm 5 mps 744 mmHg 44%
14:00 +36°C° 0 mm 5 mps 743 mmHg 43%
15:00 +35°C° 0 mm 5 mps 743 mmHg 45%
16:00 +34°C° 0 mm 5 mps 743 mmHg 46%
17:00 +34°C° 0 mm 5 mps 743 mmHg 48%
18:00 +32°C° 0 mm 4 mps 743 mmHg 55%
19:00 +29°C° 0 mm 4 mps 743 mmHg 63%
20:00 +27°C° 0 mm 3 mps 744 mmHg 70%
21:00 +26°C° 0 mm 3 mps 743 mmHg 71%
22:00 +26°C° 0 mm 2 mps 743 mmHg 71%
23:00 +25°C° 0 mm 2 mps 743 mmHg 72%

20 July, Monday

Time Temperature Precipitation Wind Pressure Humidity
00:00 +25°C° 0 mm 2 mps 743 mmHg 74%
01:00 +25°C° 0 mm 2 mps 743 mmHg 77%
02:00 +24°C° 0 mm 2 mps 743 mmHg 79%
03:00 +24°C° 0 mm 2 mps 743 mmHg 80%
04:00 +24°C° 0 mm 1 mps 743 mmHg 81%
05:00 +24°C° 0 mm 1 mps 744 mmHg 82%
06:00 +26°C° 0 mm 1 mps 744 mmHg 73%
07:00 +28°C° 0 mm 2 mps 744 mmHg 64%
08:00 +30°C° 0 mm 2 mps 744 mmHg 56%
09:00 +32°C° 0 mm 2 mps 744 mmHg 51%
10:00 +35°C° 0 mm 3 mps 744 mmHg 47%
11:00 +36°C° 0 mm 4 mps 744 mmHg 43%
12:00 +36°C° 0 mm 4 mps 743 mmHg 42%
13:00 +36°C° 0 mm 5 mps 743 mmHg 42%
14:00 +36°C° 0 mm 6 mps 742 mmHg 42%
15:00 +35°C° 0 mm 6 mps 742 mmHg 45%
16:00 +34°C° 0 mm 6 mps 742 mmHg 49%
17:00 +33°C° 0 mm 5 mps 742 mmHg 52%
18:00 +30°C° 0 mm 5 mps 742 mmHg 61%
19:00 +28°C° 0 mm 4 mps 742 mmHg 71%
20:00 +26°C° 0 mm 3 mps 743 mmHg 80%
21:00 +25°C° 0 mm 3 mps 743 mmHg 81%
22:00 +25°C° 0 mm 2 mps 743 mmHg 83%
23:00 +25°C° 0 mm 2 mps 743 mmHg 84%
Show more